DW6400 Weather Reports


Display with metric or nautical units.
time (UTC)temp
F
wind
direction
speed
MPH
gust
MPH
rain 1hr
in
rain 24hr
in
rain mn
in
humidity
%
barometer
mb
20171117170401 61 152 4.0 12.0 0.00 0.00 0.00 38 997.1
20171117164845 60 138 5.0 12.0 0.00 0.00 0.00 39 997.5
20171117163341 59 140 5.0 14.0 0.00 0.00 0.00 41 997.6
20171117161914 58 146 4.0 10.0 0.00 0.00 0.00 43 997.7
20171117160400 57 149 3.0 14.0 0.00 0.00 0.00 43 998.0
20171117154835 56 150 3.0 14.0 0.00 0.00 0.00 46 997.9
20171117153328 55 146 3.0 9.0 0.00 0.00 0.00 48 998.1
20171117151833 53 143 3.0 7.0 0.00 0.00 0.00 51 998.3
20171117150328 52 143 3.0 8.0 0.00 0.00 0.00 52 998.6
20171117144823 50 153 2.0 8.0 0.00 0.00 0.00 55 998.6
20171117143319 49 136 2.0 12.0 0.00 0.00 0.00 56 998.5
20171117141849 48 144 2.0 10.0 0.00 0.00 0.00 57 998.6
20171117140319 48 134 3.0 7.0 0.00 0.00 0.00 56 998.6
20171117134822 49 163 3.0 8.0 0.00 0.00 0.00 54 998.9
20171117133320 49 170 4.0 7.0 0.00 0.00 0.00 54 998.8
20171117131815 50 134 3.0 10.0 0.00 0.00 0.00 52 998.7
20171117130303 50 139 4.0 9.0 0.00 0.00 0.00 51 999.0
20171117124825 51 153 3.0 6.0 0.00 0.00 0.00 51 998.9
20171117123302 51 132 4.0 9.0 0.00 0.00 0.00 49 998.5
20171117121800 51 142 2.0 5.0 0.00 0.00 0.00 48 998.6
20171117120301 51 187 3.0 9.0 0.00 0.00 0.00 47 998.8
20171117114757 51 158 3.0 6.0 0.00 0.00 0.00 47 998.7
20171117113253 51 196 3.0 6.0 0.00 0.00 0.00 45 999.2
20171117111753 51 150 2.0 8.0 0.00 0.00 0.00 43 999.2
20171117110256 52 153 3.0 11.0 0.00 0.00 0.00 42 999.0
20171117104815 52 184 3.0 7.0 0.00 0.00 0.00 41 999.2
20171117103252 52 132 4.0 8.0 0.00 0.00 0.00 38 999.4
20171117101752 53 163 4.0 12.0 0.00 0.00 0.00 37 999.3
20171117100249 53 152 4.0 11.0 0.00 0.00 0.00 37 999.2
20171117094746 53 219 6.0 12.0 0.00 0.00 0.00 38 999.5
20171117093259 52 153 4.0 7.0 0.00 0.00 0.00 38 999.4
20171117091748 52 198 4.0 8.0 0.00 0.00 0.00 39 999.5
20171117090328 52 182 4.0 10.0 0.00 0.00 0.00 41 999.8
20171117084741 52 159 4.0 12.0 0.00 0.00 0.00 41 999.8
20171117083241 52 138 0.0 0.0 0.00 0.00 0.00 40 999.9
20171117081737 53 148 0.0 0.0 0.00 0.00 0.00 40 999.8
20171117080238 53 132 0.0 0.0 0.00 0.00 0.00 40 1000.2
20171117074745 53 139 0.0 0.0 0.00 0.00 0.00 40 1000.4
20171117073237 53 136 5.0 10.0 0.00 0.00 0.00 42 1000.7
20171117071725 52 140 4.0 7.0 0.00 0.00 0.00 45 1001.4
20171117070252 51 237 0.0 5.0 0.00 0.00 0.00 46 1002.1
20171117064717 51 134 0.0 5.0 0.00 0.00 0.00 47 1002.3
20171117063233 51 139 1.0 5.0 0.00 0.00 0.00 47 1002.1
20171117061722 51 139 0.0 2.0 0.00 0.00 0.00 47 1002.6
20171117060214 52 139 2.0 5.0 0.00 0.00 0.00 47 1003.1
20171117054712 53 139 0.0 4.0 0.00 0.00 0.00 46 1003.3
20171117053220 53 155 1.0 7.0 0.00 0.00 0.00 46 1003.5
20171117051731 53 134 6.0 14.0 0.00 0.00 0.00 45 1003.8
20171117050207 54 141 5.0 14.0 0.00 0.00 0.00 44 1003.9
20171117044706 54 138 6.0 15.0 0.00 0.00 0.00 43 1004.0
20171117043209 54 142 6.0 14.0 0.00 0.00 0.00 43 1004.2
20171117041709 54 139 4.0 18.0 0.00 0.00 0.00 41 1004.5
20171117040201 54 139 5.0 15.0 0.00 0.00 0.00 41 1004.8
20171117034706 54 134 5.0 10.0 0.00 0.00 0.00 39 1004.9
20171117033540 54 138 6.0 14.0 0.00 0.00 0.00 36 1004.8
20171117032430 54 131 4.0 7.0 0.00 0.00 0.00 34 1004.8
20171117030205 55 174 3.0 7.0 0.00 0.00 0.00 32 1005.1
20171117024703 56 142 2.0 6.0 0.00 0.00 0.00 30 1005.3
20171117023158 58 139 4.0 12.0 0.00 0.00 0.00 28 1005.2
20171117021710 58 157 4.0 10.0 0.00 0.00 0.00 28 1005.3
20171117020150 58 162 3.0 10.0 0.00 0.00 0.00 27 1005.4
20171117014749 58 224 4.0 8.0 0.00 0.00 0.00 26 1005.5
20171117013155 59 150 2.0 7.0 0.00 0.00 0.00 24 1005.6
20171117011703 61 155 4.0 10.0 0.00 0.00 0.00 23 1005.8
20171117010146 60 157 2.0 7.0 0.00 0.00 0.00 22 1005.6
20171117004707 61 109 2.0 9.0 0.00 0.00 0.00 22 1005.9
20171117003200 61 140 3.0 7.0 0.00 0.00 0.00 23 1005.7
20171117001644 60 140 4.0 11.0 0.00 0.00 0.00 23 1005.8
20171117000144 59 170 2.0 6.0 0.00 0.00 0.00 23 1005.9
20171116234646 61 163 2.0 5.0 0.00 0.00 0.00 20 1005.7
20171116233142 64 163 0.0 5.0 0.00 0.00 0.00 19 1005.6
20171116231643 65 162 2.0 7.0 0.00 0.00 0.00 18 1005.6
20171116230147 66 156 2.0 8.0 0.00 0.00 0.00 17 1005.6
20171116224649 67 235 1.0 5.0 0.00 0.00 0.00 17 1005.7
20171116223143 69 326 1.0 9.0 0.00 0.00 0.00 16 1005.5
20171116221642 71 118 3.0 9.0 0.00 0.00 0.00 14 1005.6
20171116220203 72 311 3.0 12.0 0.00 0.00 0.00 14 1005.6
20171116214645 73 85 4.0 11.0 0.00 0.00 0.00 14 1005.6
20171116213157 73 306 2.0 11.0 0.00 0.00 0.00 15 1005.6
20171116211750 70 186 2.0 8.0 0.00 0.00 0.00 16 1005.5
20171116210141 70 165 3.0 9.0 0.00 0.00 0.00 16 1005.7
20171116204634 71 336 0.0 4.0 0.00 0.00 0.00 15 1005.7
20171116203146 73 355 2.0 4.0 0.00 0.00 0.00 14 1005.7
20171116201653 74 59 0.0 5.0 0.00 0.00 0.00 14 1006.0
20171116200127 71 349 0.0 5.0 0.00 0.00 0.00 15 1006.2
20171116194627 70 355 0.0 3.0 0.00 0.00 0.00 15 1006.5
20171116193122 70 360 0.0 4.0 0.00 0.00 0.00 16 1006.8
20171116191638 69 133 0.0 3.0 0.00 0.00 0.00 16 1007.2
20171116190126 69 137 0.0 3.0 0.00 0.00 0.00 16 1007.6
20171116184621 69 137 0.0 3.0 0.00 0.00 0.00 16 1008.1
20171116183106 67 137 1.0 4.0 0.00 0.00 0.00 17 1008.7
20171116181615 66 137 1.0 4.0 0.00 0.00 0.00 17 1009.1
20171116180212 66 137 1.0 4.0 0.00 0.00 0.00 17 1009.7
20171116174655 66 137 0.0 2.0 0.00 0.00 0.00 17 1010.2
20171116173052 65 136 1.0 7.0 0.00 0.00 0.00 18 1010.6